DW5065 Weather Reports


Display with metric or nautical units.
time (UTC)temp
F
wind
direction
speed
MPH
gust
MPH
rain 1hr
in
rain 24hr
in
rain mn
in
humidity
%
barometer
mb
20181116052331 24 58 0.0 0.0 0.00 0.00 0.00 93 1017.9
20181116051832 24 58 0.0 0.0 0.00 0.00 0.00 93 1018.2
20181116051331 24 58 0.0 0.0 0.00 0.00 0.00 93 1018.5
20181116050831 24 58 0.0 2.0 0.00 0.00 0.00 93 1018.8
20181116050331 24 58 0.0 2.0 0.00 0.00 0.00 93 1018.9
20181116045831 24 58 2.0 2.0 0.00 0.00 0.00 93 1018.9
20181116045331 24 294 0.0 0.0 0.00 0.00 0.00 93 1019.1
20181116044832 24 294 0.0 1.0 0.00 0.00 0.00 93 1019.0
20181116044331 24 294 0.0 1.0 0.00 0.00 0.00 93 1019.5
20181116043831 24 295 0.0 0.0 0.00 0.00 0.00 93 1019.7
20181116043331 24 294 0.0 0.0 0.00 0.00 0.00 93 1020.0
20181116042831 24 294 0.0 0.0 0.00 0.00 0.00 92 1020.1
20181116042331 24 294 0.0 0.0 0.00 0.00 0.00 92 1020.5
20181116041831 24 294 0.0 0.0 0.00 0.00 0.00 92 1021.0
20181116041331 24 294 0.0 2.0 0.00 0.00 0.00 92 1021.1
20181116040831 24 294 0.0 2.0 0.00 0.00 0.00 92 1021.3
20181116040331 24 294 1.0 2.0 0.00 0.00 0.00 91 1021.4
20181116035831 24 63 0.0 3.0 0.00 0.00 0.00 91 1021.6
20181116035331 24 63 0.0 4.0 0.00 0.00 0.00 91 1021.6
20181116034832 24 28 0.0 5.0 0.00 0.00 0.00 91 1021.8
20181116034331 24 79 1.0 5.0 0.00 0.00 0.00 91 1021.8
20181116033831 24 351 0.0 2.0 0.00 0.00 0.00 91 1022.1
20181116033331 24 355 0.0 4.0 0.00 0.00 0.00 91 1022.4
20181116032831 24 69 1.0 4.0 0.00 0.00 0.00 91 1022.9
20181116032332 24 63 1.0 3.0 0.00 0.00 0.00 91 1023.2
20181116031831 24 69 0.0 1.0 0.00 0.00 0.00 90 1023.6
20181116031331 24 69 0.0 0.0 0.00 0.00 0.00 90 1023.8
20181116030831 24 69 0.0 0.0 0.00 0.00 0.00 90 1024.0
20181116030331 24 69 0.0 0.0 0.00 0.00 0.00 89 1024.4
20181116025832 24 69 0.0 0.0 0.00 0.00 0.00 89 1024.5
20181116025331 24 69 0.0 0.0 0.00 0.00 0.00 88 1024.6
20181116024831 24 69 0.0 2.0 0.00 0.00 0.00 88 1024.6
20181116024331 24 69 0.0 2.0 0.00 0.00 0.00 87 1024.4
20181116023831 24 69 0.0 2.0 0.00 0.00 0.00 87 1024.4
20181116023331 24 69 0.0 2.0 0.00 0.00 0.00 86 1024.4
20181116022832 24 69 0.0 0.0 0.00 0.00 0.00 86 1024.8
20181116022331 24 69 0.0 0.0 0.00 0.00 0.00 85 1024.9
20181116021832 25 69 0.0 0.0 0.00 0.00 0.00 83 1025.0
20181116021332 25 69 0.0 2.0 0.00 0.00 0.00 82 1025.5
20181116020832 25 69 0.0 2.0 0.00 0.00 0.00 80 1025.4
20181116020331 25 48 1.0 2.0 0.00 0.00 0.00 78 1025.6
20181116015831 26 48 2.0 2.0 0.00 0.00 0.00 75 1025.7
20181116015331 26 48 0.0 2.0 0.00 0.00 0.00 73 1026.0
20181116014832 26 48 0.0 2.0 0.00 0.00 0.00 70 1026.2
20181116014332 26 47 0.0 2.0 0.00 0.00 0.00 71 1026.3
20181116013832 26 47 0.0 2.0 0.00 0.00 0.00 70 1026.3
20181116013331 26 296 0.0 2.0 0.00 0.00 0.00 71 1026.3
20181116012831 26 295 1.0 2.0 0.00 0.00 0.00 71 1026.2
20181116012331 26 295 0.0 1.0 0.00 0.00 0.00 71 1026.3
20181116011831 26 295 0.0 0.0 0.00 0.00 0.00 72 1026.5
20181116011331 26 295 0.0 0.0 0.00 0.00 0.00 72 1026.6
20181116010831 26 295 0.0 0.0 0.00 0.00 0.00 70 1026.9
20181116010331 26 295 0.0 0.0 0.00 0.00 0.00 69 1027.1
20181116005832 26 295 0.0 0.0 0.00 0.00 0.00 71 1027.4
20181116005332 26 295 0.0 0.0 0.00 0.00 0.00 72 1027.1
20181116004832 26 295 0.0 0.0 0.00 0.00 0.00 71 1027.1
20181116004331 26 295 0.0 0.0 0.00 0.00 0.00 71 1027.0
20181116003831 26 295 0.0 1.0 0.00 0.00 0.00 71 1027.2
20181116003331 26 295 0.0 1.0 0.00 0.00 0.00 70 1027.2
20181116002831 26 295 0.0 1.0 0.00 0.00 0.00 70 1027.4
20181116002331 26 295 0.0 1.0 0.00 0.00 0.00 70 1027.3
20181116001831 26 295 0.0 1.0 0.00 0.00 0.00 70 1027.4
20181116001331 26 295 0.0 0.0 0.00 0.00 0.00 70 1027.4
20181116000831 26 295 0.0 0.0 0.00 0.00 0.00 69 1027.6
20181116000332 26 295 0.0 0.0 0.00 0.00 0.00 70 1027.6
20181115235831 26 295 0.0 0.0 0.00 0.00 0.00 69 1027.5
20181115235331 26 295 0.0 1.0 0.00 0.00 0.00 69 1027.7
20181115234831 26 295 0.0 2.0 0.00 0.00 0.00 70 1027.4
20181115234331 26 295 0.0 2.0 0.00 0.00 0.00 69 1027.5
20181115233831 26 295 0.0 2.0 0.00 0.00 0.00 69 1027.6
20181115233331 26 291 0.0 1.0 0.00 0.00 0.00 69 1027.7
20181115232831 26 291 1.0 1.0 0.00 0.00 0.00 68 1027.8
20181115232332 26 290 0.0 0.0 0.00 0.00 0.00 66 1028.0
20181115231831 26 290 0.0 0.0 0.00 0.00 0.00 68 1028.2
20181115231331 26 290 0.0 0.0 0.00 0.00 0.00 68 1028.2
20181115230832 26 290 0.0 0.0 0.00 0.00 0.00 66 1028.1
20181115230332 26 290 0.0 0.0 0.00 0.00 0.00 67 1028.2
20181115225831 26 290 0.0 0.0 0.00 0.00 0.00 68 1028.0
20181115225331 26 290 0.0 0.0 0.00 0.00 0.00 67 1028.0
20181115224831 26 290 0.0 0.0 0.00 0.00 0.00 67 1027.9
20181115224331 26 290 0.0 0.0 0.00 0.00 0.00 66 1028.1
20181115223831 26 290 0.0 0.0 0.00 0.00 0.00 68 1028.1
20181115223332 26 290 0.0 0.0 0.00 0.00 0.00 68 1028.1
20181115222831 26 290 0.0 0.0 0.00 0.00 0.00 68 1028.0
20181115222332 26 290 0.0 0.0 0.00 0.00 0.00 68 1028.0
20181115221832 26 290 0.0 0.0 0.00 0.00 0.00 69 1028.0
20181115221332 26 290 0.0 0.0 0.00 0.00 0.00 69 1028.0
20181115220832 26 290 0.0 0.0 0.00 0.00 0.00 69 1028.0
20181115220332 26 290 0.0 0.0 0.00 0.00 0.00 67 1028.0
20181115215831 26 290 0.0 0.0 0.00 0.00 0.00 67 1028.1
20181115215332 26 290 0.0 0.0 0.00 0.00 0.00 65 1028.2
20181115214832 26 290 0.0 0.0 0.00 0.00 0.00 65 1028.1
20181115214332 26 290 0.0 0.0 0.00 0.00 0.00 62 1028.2
20181115213832 26 290 0.0 0.0 0.00 0.00 0.00 66 1028.4
20181115213331 26 290 0.0 0.0 0.00 0.00 0.00 63 1028.5
20181115212832 26 290 0.0 0.0 0.00 0.00 0.00 61 1028.6
20181115212332 27 290 0.0 0.0 0.00 0.00 0.00 62 1028.7
20181115211832 27 290 0.0 0.0 0.00 0.00 0.00 63 1028.7
20181115211332 27 290 0.0 0.0 0.00 0.00 0.00 60 1028.7
20181115210832 27 290 0.0 0.0 0.00 0.00 0.00 60 1028.9
20181115210332 27 290 0.0 0.0 0.00 0.00 0.00 60 1029.0
20181115205832 27 290 0.0 0.0 0.00 0.00 0.00 59 1028.9
20181115205332 27 290 0.0 0.0 0.00 0.00 0.00 61 1029.1
20181115204831 27 290 0.0 0.0 0.00 0.00 0.00 60 1029.4
20181115204332 27 290 0.0 0.0 0.00 0.00 0.00 58 1029.6
20181115203832 27 290 0.0 0.0 0.00 0.00 0.00 59 1029.7
20181115203332 27 290 0.0 0.0 0.00 0.00 0.00 59 1029.8
20181115202832 27 290 0.0 0.0 0.00 0.00 0.00 59 1029.8
20181115202332 27 290 0.0 1.0 0.00 0.00 0.00 58 1029.7
20181115201832 27 290 0.0 1.0 0.00 0.00 0.00 58 1029.8
20181115201332 27 290 0.0 0.0 0.00 0.00 0.00 59 1030.0
20181115200832 27 290 0.0 0.0 0.00 0.00 0.00 60 1029.9
20181115200332 27 290 0.0 2.0 0.00 0.00 0.00 60 1029.9
20181115195832 27 290 0.0 2.0 0.00 0.00 0.00 59 1029.9
20181115195332 27 290 0.0 2.0 0.00 0.00 0.00 55 1029.8
20181115194832 27 290 0.0 2.0 0.00 0.00 0.00 58 1029.9
20181115194332 27 330 0.0 0.0 0.00 0.00 0.00 59 1030.1
20181115193832 27 330 0.0 0.0 0.00 0.00 0.00 56 1030.1
20181115193332 26 330 0.0 0.0 0.00 0.00 0.00 55 1030.2
20181115192832 26 330 0.0 0.0 0.00 0.00 0.00 56 1030.3
20181115192332 26 330 0.0 0.0 0.00 0.00 0.00 55 1030.3
20181115191832 26 330 0.0 2.0 0.00 0.00 0.00 56 1030.3
20181115191332 26 330 0.0 2.0 0.00 0.00 0.00 56 1030.3
20181115190832 26 330 1.0 2.0 0.00 0.00 0.00 58 1030.4
20181115190332 26 271 1.0 2.0 0.00 0.00 0.00 56 1030.7
20181115185832 26 271 0.0 1.0 0.00 0.00 0.00 56 1031.0
20181115185332 26 271 0.0 1.0 0.00 0.00 0.00 56 1031.3
20181115184832 26 271 0.0 2.0 0.00 0.00 0.00 57 1031.4
20181115184332 26 271 0.0 2.0 0.00 0.00 0.00 59 1031.3
20181115183802 26 271 1.0 3.0 0.00 0.00 0.00 56 1031.4
20181115183332 26 271 1.0 3.0 0.00 0.00 0.00 57 1031.4
20181115182832 26 271 2.0 2.0 0.00 0.00 0.00 61 1031.5
20181115182332 26 157 0.0 2.0 0.00 0.00 0.00 56 1031.4
20181115181832 26 149 0.0 4.0 0.00 0.00 0.00 56 1031.5
20181115181332 26 149 0.0 4.0 0.00 0.00 0.00 57 1031.6
20181115180832 26 149 1.0 1.0 0.00 0.00 0.00 54 1031.4
20181115180332 26 149 0.0 2.0 0.00 0.00 0.00 56 1031.2
20181115175832 25 149 0.0 2.0 0.00 0.00 0.00 55 1031.4
20181115175332 25 149 1.0 2.0 0.00 0.00 0.00 56 1031.4
20181115174832 25 149 0.0 2.0 0.00 0.00 0.00 57 1031.5
20181115174332 25 149 0.0 2.0 0.00 0.00 0.00 54 1031.7
20181115173832 25 134 0.0 2.0 0.00 0.00 0.00 55 1031.8
20181115173332 25 134 1.0 2.0 0.00 0.00 0.00 56 1032.2
20181115172832 25 134 1.0 2.0 0.00 0.00 0.00 56 1032.2
20181115172332 25 85 0.0 2.0 0.00 0.00 0.00 61 1032.1
20181115171803 25 85 0.0 2.0 0.00 0.00 0.00 58 1032.3
20181115171332 24 85 0.0 2.0 0.00 0.00 0.00 56 1032.4
20181115170832 24 85 0.0 3.0 0.00 0.00 0.00 57 1032.6
20181115170332 24 85 2.0 3.0 0.00 0.00 0.00 58 1032.6
20181115165832 24 72 1.0 3.0 0.00 0.00 0.00 59 1032.7
20181115165332 23 72 0.0 3.0 0.00 0.00 0.00 58 1032.8
20181115164832 23 72 3.0 3.0 0.00 0.00 0.00 60 1033.2
20181115164332 23 53 2.0 3.0 0.00 0.00 0.00 59 1033.4
20181115163832 23 42 1.0 3.0 0.00 0.00 0.00 59 1033.4
20181115163302 24 308 1.0 3.0 0.00 0.00 0.00 59 1033.6
20181115162832 23 309 0.0 3.0 0.00 0.00 0.00 62 1033.7
20181115162332 23 309 1.0 3.0 0.00 0.00 0.00 61 1033.8
20181115161832 23 267 0.0 3.0 0.00 0.00 0.00 65 1034.0
20181115161302 23 267 0.0 3.0 0.00 0.00 0.00 63 1034.3
20181115160832 23 269 0.0 3.0 0.00 0.00 0.00 63 1034.2
20181115160332 23 269 0.0 3.0 0.00 0.00 0.00 64 1034.3
20181115155832 22 310 0.0 2.0 0.00 0.00 0.00 64 1034.0
20181115155332 22 310 0.0 3.0 0.00 0.00 0.00 63 1034.2
20181115154832 22 310 2.0 3.0 0.00 0.00 0.00 68 1034.2
20181115154332 22 281 1.0 3.0 0.00 0.00 0.00 67 1034.1
20181115153832 22 281 2.0 4.0 0.00 0.00 0.00 70 1034.5
20181115153332 22 281 1.0 4.0 0.00 0.00 0.00 70 1034.5
20181115152832 22 304 1.0 3.0 0.00 0.00 0.00 67 1034.5
20181115152332 22 304 1.0 3.0 0.00 0.00 0.00 70 1034.4
20181115151832 22 304 1.0 3.0 0.00 0.00 0.00 72 1034.5
20181115151332 21 310 2.0 3.0 0.00 0.00 0.00 71 1034.6
20181115150832 21 140 2.0 3.0 0.00 0.00 0.00 72 1034.7
20181115150332 21 76 1.0 4.0 0.00 0.00 0.00 70 1034.6
20181115145832 21 298 2.0 4.0 0.00 0.00 0.00 72 1034.8
20181115145332 21 39 0.0 3.0 0.00 0.00 0.00 73 1034.8
20181115144832 20 59 2.0 4.0 0.00 0.00 0.00 73 1034.5
20181115144332 20 69 3.0 4.0 0.00 0.00 0.00 73 1034.6
20181115143832 20 301 0.0 3.0 0.00 0.00 0.00 72 1034.9
20181115143302 20 292 2.0 3.0 0.00 0.00 0.00 74 1034.9
20181115142832 20 295 0.0 3.0 0.00 0.00 0.00 72 1035.2
20181115142332 19 346 0.0 3.0 0.00 0.00 0.00 73 1035.3
20181115141832 19 332 1.0 3.0 0.00 0.00 0.00 75 1035.7
20181115141332 19 275 0.0 2.0 0.00 0.00 0.00 76 1035.7
20181115140832 19 275 1.0 2.0 0.00 0.00 0.00 75 1036.0
20181115140332 19 302 2.0 3.0 0.00 0.00 0.00 77 1035.9
20181115135832 19 302 0.0 3.0 0.00 0.00 0.00 77 1035.8
20181115135332 18 50 0.0 2.0 0.00 0.00 0.00 76 1035.8
20181115134832 18 50 1.0 2.0 0.00 0.00 0.00 77 1035.7
20181115134332 18 57 0.0 1.0 0.00 0.00 0.00 77 1035.9
20181115133832 18 57 0.0 1.0 0.00 0.00 0.00 80 1036.0
20181115133332 18 57 0.0 2.0 0.00 0.00 0.00 79 1035.9
20181115132833 18 57 0.0 3.0 0.00 0.00 0.00 78 1036.1
20181115132332 18 76 0.0 4.0 0.00 0.00 0.00 79 1036.1
20181115131832 18 76 1.0 4.0 0.00 0.00 0.00 79 1035.9
20181115131332 18 10 2.0 3.0 0.00 0.00 0.00 81 1035.9
20181115130832 17 338 0.0 3.0 0.00 0.00 0.00 80 1035.8
20181115130302 18 338 0.0 3.0 0.00 0.00 0.00 81 1035.8
20181115125832 17 334 2.0 3.0 0.00 0.00 0.00 82 1036.0
20181115125332 17 334 0.0 3.0 0.00 0.00 0.00 82 1035.8
20181115124832 17 308 2.0 3.0 0.00 0.00 0.00 83 1035.6
20181115124302 17 360 0.0 1.0 0.00 0.00 0.00 83 1035.5
20181115123832 17 360 0.0 3.0 0.00 0.00 0.00 82 1035.4
20181115123332 17 360 0.0 4.0 0.00 0.00 0.00 84 1035.6
20181115122832 17 304 1.0 4.0 0.00 0.00 0.00 83 1035.4
20181115122302 16 39 0.0 0.0 0.00 0.00 0.00 83 1035.4
20181115121832 16 22 0.0 0.0 0.00 0.00 0.00 83 1035.5
20181115121332 16 22 0.0 0.0 0.00 0.00 0.00 82 1035.9
20181115120832 16 22 0.0 0.0 0.00 0.00 0.00 82 1036.0
20181115120332 16 22 0.0 0.0 0.00 0.00 0.00 83 1035.8
20181115115832 16 22 0.0 0.0 0.00 0.00 0.00 83 1035.8
20181115115332 16 22 0.0 1.0 0.00 0.00 0.00 84 1035.7
20181115114802 16 22 0.0 1.0 0.00 0.00 0.00 83 1035.4
20181115114332 16 22 0.0 0.0 0.00 0.00 0.00 84 1035.4
20181115113832 16 22 0.0 0.0 0.00 0.00 0.00 84 1035.5
20181115113332 16 22 0.0 0.0 0.00 0.00 0.00 84 1035.4
20181115112832 16 22 0.0 2.0 0.00 0.00 0.00 83 1035.6
20181115112332 16 22 0.0 2.0 0.00 0.00 0.00 84 1035.9
20181115111833 15 87 1.0 2.0 0.00 0.00 0.00 84 1035.8
20181115111332 16 98 0.0 0.0 0.00 0.00 0.00 84 1036.0
20181115110803 16 98 0.0 0.0 0.00 0.00 0.00 84 1035.9
20181115110303 16 98 0.0 5.0 0.00 0.00 0.00 84 1035.9
20181115105832 16 98 0.0 5.0 0.00 0.00 0.00 84 1035.8
20181115105333 16 71 3.0 3.0 0.00 0.00 0.00 84 1036.0
20181115104802 16 71 0.0 0.0 0.00 0.00 0.00 84 1036.0
20181115104302 16 71 0.0 0.0 0.00 0.00 0.00 84 1036.0
20181115103833 16 71 0.0 0.0 0.00 0.00 0.00 83 1035.9
20181115103332 16 71 0.0 0.0 0.00 0.00 0.00 83 1036.0
20181115102832 16 71 0.0 2.0 0.00 0.00 0.00 83 1036.1
20181115102305 16 71 0.0 3.0 0.00 0.00 0.00 84 1036.2
20181115101802 16 71 2.0 3.0 0.00 0.00 0.00 86 1036.1
20181115101333 16 78 0.0 3.0 0.00 0.00 0.00 86 1035.8
20181115100802 16 87 0.0 2.0 0.00 0.00 0.00 86 1036.1
20181115100333 16 87 0.0 2.0 0.00 0.00 0.00 86 1036.2
20181115095832 16 87 2.0 2.0 0.00 0.00 0.00 86 1036.0
20181115095332 16 87 1.0 2.0 0.00 0.00 0.00 87 1036.0
20181115094832 15 87 0.0 0.0 0.00 0.00 0.00 87 1036.2
20181115094332 15 87 0.0 0.0 0.00 0.00 0.00 87 1036.3
20181115093832 15 87 0.0 0.0 0.00 0.00 0.00 86 1036.4
20181115093302 15 87 0.0 0.0 0.00 0.00 0.00 86 1036.4
20181115092802 15 87 0.0 0.0 0.00 0.00 0.00 86 1036.4
20181115092332 16 87 0.0 0.0 0.00 0.00 0.00 86 1036.3
20181115091802 16 87 0.0 0.0 0.00 0.00 0.00 86 1036.2
20181115091333 16 87 0.0 0.0 0.00 0.00 0.00 86 1036.3
20181115090802 16 87 0.0 0.0 0.00 0.00 0.00 86 1036.2
20181115090332 15 87 0.0 0.0 0.00 0.00 0.00 86 1036.0
20181115085832 15 87 0.0 0.0 0.00 0.00 0.00 86 1035.8
20181115085305 16 87 0.0 0.0 0.00 0.00 0.00 86 1035.8
20181115084833 16 87 0.0 0.0 0.00 0.00 0.00 85 1035.6
20181115084302 16 87 0.0 0.0 0.00 0.00 0.00 86 1035.5
20181115083802 15 87 0.0 0.0 0.00 0.00 0.00 86 1035.4
20181115083302 16 87 0.0 0.0 0.00 0.00 0.00 86 1035.4
20181115082833 16 87 0.0 0.0 0.00 0.00 0.00 86 1035.7
20181115082303 15 87 0.0 0.0 0.00 0.00 0.00 86 1035.8
20181115081803 15 87 0.0 0.0 0.00 0.00 0.00 85 1036.0
20181115081302 15 87 0.0 0.0 0.00 0.00 0.00 86 1036.0
20181115080802 15 87 0.0 0.0 0.00 0.00 0.00 85 1036.2
20181115080302 15 87 0.0 0.0 0.00 0.00 0.00 86 1036.0
20181115075832 15 87 0.0 0.0 0.00 0.00 0.00 85 1035.9
20181115075305 15 87 0.0 0.0 0.00 0.00 0.00 85 1036.2
20181115074833 15 87 0.0 0.0 0.00 0.00 0.00 84 1036.0
20181115074333 15 87 0.0 0.0 0.00 0.00 0.00 84 1035.8
20181115073803 15 87 0.0 0.0 0.00 0.00 0.00 84 1036.2
20181115073302 15 87 0.0 0.0 0.00 0.00 0.00 85 1036.1
20181115072833 15 87 0.0 0.0 0.00 0.00 0.00 84 1036.1
20181115072305 16 87 0.0 0.0 0.00 0.00 0.00 84 1036.0
20181115071833 16 87 0.0 1.0 0.00 0.00 0.00 84 1036.0
20181115071333 16 87 0.0 1.0 0.00 0.00 0.00 84 1036.0
20181115070833 16 87 0.0 0.0 0.00 0.00 0.00 84 1035.9
20181115070332 16 87 0.0 0.0 0.00 0.00 0.00 84 1036.0
20181115065833 16 87 0.0 0.0 0.00 0.00 0.00 83 1035.9
20181115065303 16 87 0.0 0.0 0.00 0.00 0.00 83 1036.0
20181115064833 16 87 0.0 2.0 0.00 0.00 0.00 83 1035.9
20181115064303 16 87 0.0 3.0 0.00 0.00 0.00 82 1036.1
20181115063833 16 87 2.0 3.0 0.00 0.00 0.00 82 1036.0
20181115063333 16 87 2.0 3.0 0.00 0.00 0.00 82 1036.0
20181115062833 16 87 0.0 2.0 0.00 0.00 0.00 82 1035.9
20181115062333 16 87 0.0 2.0 0.00 0.00 0.00 83 1035.7
20181115061833 16 87 0.0 2.0 0.00 0.00 0.00 83 1035.7
20181115061333 16 87 0.0 0.0 0.00 0.00 0.00 83 1035.6
20181115060833 16 87 0.0 0.0 0.00 0.00 0.00 82 1035.7
20181115060333 16 87 0.0 1.0 0.00 0.00 0.00 83 1035.9
20181115055803 16 87 0.0 2.0 0.00 0.00 0.00 83 1035.5
20181115055303 16 87 0.0 2.0 0.00 0.00 0.00 83 1035.5
20181115054833 16 87 0.0 0.0 0.00 0.00 0.00 82 1035.6
20181115054333 16 87 0.0 0.0 0.00 0.00 0.00 82 1035.7
20181115053803 16 87 0.0 0.0 0.00 0.00 0.00 82 1035.9
20181115053303 16 87 0.0 0.0 0.00 0.00 0.00 82 1035.9
20181115052833 16 87 0.0 0.0 0.00 0.00 0.00 82 1035.9